TimeMST,TemperatureF,Dew PointF,Humidity,Sea Level PressureIn,VisibilityMPH,Wind Direction,Wind SpeedMPH,Gust SpeedMPH,PrecipitationIn,Events,Conditions,WindDirDegrees,DateUTC
12:53 AM,23.0,12.0,63,30.28,-9999.0,North,6.9,-,N/A,,Clear,360,2013-03-01 07:53:00
1:53 AM,19.9,10.0,65,30.28,10.0,NW,5.8,-,N/A,,Mostly Cloudy,320,2013-03-01 08:53:00
2:53 AM,19.0,10.0,68,30.29,10.0,North,4.6,-,N/A,,Clear,360,2013-03-01 09:53:00
3:53 AM,19.9,10.9,68,30.30,10.0,Variable,3.5,-,N/A,,Overcast,0,2013-03-01 10:53:00
6:53 AM,25.0,14.0,63,30.32,10.0,WNW,13.8,25.3,N/A,,Overcast,300,2013-03-01 13:53:00
7:53 AM,17.1,10.9,77,30.42,10.0,ENE,5.8,-,N/A,,Mostly Cloudy,70,2013-03-01 14:53:00
8:53 AM,21.0,14.0,74,30.42,10.0,SSE,3.5,-,N/A,,Mostly Cloudy,160,2013-03-01 15:53:00
9:53 AM,28.0,18.0,66,30.36,10.0,Calm,Calm,-,N/A,,Partly Cloudy,0,2013-03-01 16:53:00
11:53 AM,36.0,21.0,55,30.32,-9999.0,NW,21.9,28.8,N/A,,Overcast,310,2013-03-01 18:53:00
12:53 PM,36.0,23.0,59,30.28,-9999.0,WNW,21.9,-,N/A,,Mostly Cloudy,300,2013-03-01 19:53:00
1:53 PM,37.9,23.0,55,30.27,10.0,WNW,19.6,-,N/A,,Mostly Cloudy,290,2013-03-01 20:53:00
2:53 PM,37.0,23.0,57,30.29,10.0,WNW,18.4,-,N/A,,Overcast,290,2013-03-01 21:53:00
3:53 PM,37.0,24.1,59,30.30,10.0,WNW,19.6,-,N/A,,Overcast,300,2013-03-01 22:53:00
4:53 PM,35.1,25.0,67,30.34,10.0,WNW,16.1,-,N/A,,Overcast,290,2013-03-01 23:53:00
5:53 PM,34.0,25.0,70,30.36,10.0,West,19.6,-,N/A,,Overcast,280,2013-03-02 00:53:00
7:53 PM,28.9,23.0,78,30.40,10.0,Calm,Calm,-,N/A,,Partly Cloudy,0,2013-03-02 02:53:00
8:53 PM,30.9,21.9,69,30.37,10.0,WSW,4.6,-,N/A,,Clear,240,2013-03-02 03:53:00
9:53 PM,28.0,21.0,75,30.35,10.0,WSW,8.1,-,N/A,,Clear,240,2013-03-02 04:53:00
10:53 PM,28.9,21.9,75,30.32,10.0,West,9.2,-,N/A,,Clear,260,2013-03-02 05:53:00
11:53 PM,30.0,21.9,72,30.31,10.0,WNW,6.9,-,N/A,,Clear,290,2013-03-02 06:53:00